Weather in Jav

Uzbekistan     40°35′32″N   71°06′38″E
temp.,
°C
wind,
m/s
gust,
m/s
humid.,
%
clouds,
%
prec.,
mm/h
press.,
hPa
HPBL,
m
16 april, fri
fri1623:00+21wsw61229100 0.0 1012516
02:00+19wsw512325 0.0 1012445
05:00+17w493844 0.0 1014345
08:00+19w4537100 0.0 1016420
11:00+22nw2330100 0.0 1016909
14:00+25w3422100 0.0 10141674
17:00+26wsw66190 0.0 10141978
20:00+23wsw711230 0.0 1015711
17 april, sat
sat1723:00+20sw38280 0.0 1015270
02:00+19sw35334 0.0 1014154
05:00+17wnw13365 0.0 1015102
08:00+19w343225 0.0 1017364
11:00+24wnw34224 0.0 10161218
14:00+27wnw34164 0.0 10142418
17:00+27wsw5512100 0.0 10122640
20:00+23sw71123100 0.0 10141042
18 april, sun
sun1823:00+21sw8132799 0.0 10141096
02:00+20wsw81329100 0.0 1014788
05:00+20wsw91329100 0.0 1015772
08:00+21wsw91128100 0.0 10171138
11:00+24wsw8820100 0.0 10172711
14:00+25wsw91017100 0.0 10163164
17:00+25wsw8101618 0.0 10163256
20:00+21wsw7122848 0.0 1018721
19 april, mon
mon1923:00+19sw6113225 0.0 1017459
02:00+18wsw383453 0.0 1017267
05:00+16nne1238100 0.0 1018103
08:00+17ne3340100 0.0 1019318
11:00+21ne3228100 0.0 1017913
14:00+24n1119100 0.0 10141269
17:00+24sw1115100 0.0 10131365
20:00+23e0117100 0.0 101323
20 april, tue
tue2023:00+21sw2219100 0.0 101240
02:00+19nw122554 0.0 101246
05:00+17ene123299 0.0 1012126
08:00+19ne12295 0.0 1013400
11:00+23nne222123 0.0 10111015
14:00+26nw22165 0.0 10081868
17:00+27wnw1215100 0.0 10051735
20:00+23wsw71123100 0.0 1006714